Location: Observatoire de Paris
(48.8363°N, 2.3365°E)
Time: 13:10:48
(UTC+01:00)

SEEDS - Visible Passes

Search period start: 24 September 2021 00:00
Search period end: 04 October 2021 00:00
Orbit: 584 x 602 km, 97.6° (Epoch: 23 September)

Date Brightness Start Highest point End Pass type
(mag) Time Alt. Az. Time Alt. Az. Time Alt. Az.
24 Sep ? 04:22:59 10° NE 04:25:29 15° E 04:27:58 10° SE visible
24 Sep ? 05:57:18 10° N 06:01:29 61° WNW 06:05:39 10° SSW visible
25 Sep ? 04:31:34 10° NE 04:34:33 19° E 04:37:32 10° SE visible
25 Sep ? 06:06:20 10° N 06:10:26 50° WNW 06:14:31 10° SW visible
26 Sep ? 04:40:15 10° NE 04:43:37 22° E 04:46:58 10° SE visible
27 Sep ? 04:49:02 10° NE 04:52:40 27° E 04:56:17 10° SSE visible
28 Sep ? 04:57:50 10° NNE 05:01:42 33° E 05:05:32 10° SSE visible
29 Sep ? 05:06:41 10° NNE 05:10:43 41° E 05:14:44 10° S visible
30 Sep ? 05:15:35 10° NNE 05:19:44 51° E 05:23:51 10° S visible
01 Oct ? 05:24:29 10° NNE 05:28:43 63° E 05:32:55 10° S visible
02 Oct ? 05:33:26 10° NNE 05:37:42 78° E 05:41:57 10° S visible
03 Oct ? 04:09:15 10° ENE 04:10:28 11° E 04:11:42 10° ESE visible
03 Oct ? 05:42:24 10° NNE 05:46:40 85° WNW 05:50:55 10° SSW visible
